Tracking 29892 objects as of 21-Nov-2024
HD Live streaming from Space Station
objects crossing your sky now

COSMOS 1823 DEB

Track COSMOS 1823 DEB now!
10-day predictions


NORAD ID: 18746
Int'l Code: 1987-020Z
Perigee: 1,299.8 km
Apogee: 1,354.4 km
Inclination: 73.5 °
Period: 112.0 minutes
Semi major axis: 7698 km
RCS: 0.017 m2 (small)
Launch date: February 20, 1987
Source: Commonwealth of Independent States (former USSR) (CIS)
Launch site: PLESETSK MISSILE AND SPACE COMPLEX (PKMTR)

Note: This is SATELLITE DEBRIS
Your satellite tracking list
Your tracking list is empty




NASA's NSSDC Master Catalog

Two Line Element Set (TLE):
1 18746U 87020Z   24325.22456623  .00004447  00000-0  18183-1 0  9990
2 18746  73.4796 351.2606 0035448 159.3721 316.7432 12.85368280692320
Source of the keplerian elements: AFSPC